Showing default

ASTROSAT, 40930

Orbit data source: Space-Track

ASTROSAT, 40930 is a payload satellite owned by ISRO (IN) in LEO that was launched on Mon, 28 Sep 2015 UTC via a PSLV-XL launch vehicle from the Sirharikota (SRI). Payload-class satellites include a variety of spacecraft equipped with specific instruments for various scientific and technological missions. These include communications satellites like Starlink; space stations such as the ISS; scientific satellites like the Hubble; Earth observation satellites from companies like Planet Labs, Umbra, and HawkEye 360; GPS; miniature CubeSats for education and research; and military/defense satellites.

Not visible in the next 10 days
Identifier
40930, 2015-052A
Orbit
LEO
Country
Flag of ININ / IND
Related business
Manufacturer
ISRO SAC/Banga
Mission
Operational Civil Astronomy
Bus & Motor
ASTROSAT, AOCS
Mass
1,513 kg wet, 1,470 kg dry
Launch date (UTC)
2015-09-28 (10 years ago)
Launch vehicle
PSLV-XL
Launch site
Sirharikota (SRI)
Object type
Payload
Rocket body
Debris
Shape & HBR
Box + 2 Pan, 3.5 m
Radar Cross Section
5.447 m², Large (>1 m²)

Expand to show TLE details & history
Last TLE update: 2 days ago

TLE from 2 days ago
0 ASTROSAT
1 40930U 15052A   25241.04709133  .00002365  00000-0  21104-3 0  9997
2 40930   5.9975  96.8872 0008182 189.5573 170.4399 14.81588557536414
Epoch: 2025-08-29T01:07Z
TLE epoch observation values (Epoch: 2025-08-29T01:07:48.69Z)
Latitude
-0.00001°
Longitude
102.4329°
Altitude
626.9 km
Speed
7.545 km/s
True Right ascension
06h 27m 32s
True Declination
0° 00' 00"
Sunlit
Object was in daylight at epoch
Visualization orbit readout
Latitude
Unknown
Longitude
Unknown
Altitude
Unknown
Speed
Unknown
Apparent Right ascension
Unknown
Apparent Declination
Unknown
Sunlit
N/A
Visualization observer readout
Local Sidereal Time
15:57:55
Azimuth
Unknown
Elevation
Unknown
Doppler factor
Unknown
Orbital elements
Apogee altitude
636.244 km
Perigee altitude
624.775 km
Semi-major axis
7,008.646 km
Eccentricity
0.00082
Inclination
5.9975°
RAAN
96.8872°
Arg. of periapsis
189.5573°
True anomaly
170.45546°
Mean anomaly
170.4399°
Eccentric anomaly
170.44768°
Mean motion
3.69907 °/min
Orbital period
97.32 mins
BSTAR
0.00021104
Loading maneuver chart data...
Computing Atmospheric mass density...
Loading historical data...
Loading historical data...
Loading historical data...
Loading historical data...
Loading historical data...
Loading historical data...
Loading historical data...

Documentation

Showing up to 5 results
|